Other Public Products
Issued by NWS Grand Forks, ND

Home | Current Version | Previous Version | Graphics & Text | Print | Product List | Glossary On
Versions: 1 2 3 4 5 6 7 8 9 10 11 12 13 14 15 16 17 18 19 20 21 22 23 24 25 26 27 28 29 30 31 32 33 34 35 36 37 38 39 40 41 42 43 44 45 46 47 48 49 50
164
FPUS83 KFGF 240831
OPUFGF
PRAIRIE TO PINES WEATHER ROUNDUP
NATIONAL WEATHER SERVICE EASTERN NORTH DAKOTA/GRAND FORKS ND
300 AM CDT FRI MAR 24 2017

 **SATELLITE DATA USED TO AUGMENT SKY COVER AT AUTOMATED STATIONS**
 *****  WEATHER ACROSS EASTERN NORTH DAKOTA  *****

CITY           SKY/WX    TMP DP  RH WIND       PRES   REMARKS
GRAND FORKS    FAIR      33  32  96 N12       29.95R WCI  24
GRAND FORKS AF FAIR      33  32  98 N13       29.97R WCI  23
GRAND CITY NWS NOT AVBL
BUXTON         NOT AVBL
DEVILS LAKE    FAIR      30  29  96 N5        30.00R
FARGO          CLOUDY    35  34  96 NW7       29.93R FOG
WAHPETON ARPT    N/A     32  32 100 CALM      29.93R
$$

 *****  WEATHER ACROSS CENTRAL AND WESTERN NORTH DAKOTA  *****

CITY           SKY/WX    TMP DP  RH WIND       PRES   REMARKS
JAMESTOWN      FAIR      33  31  92 N12       29.93S WCI  24
BISMARCK       FAIR      33  31  92 NW6       29.99R
MINOT          FAIR      31  27  85 CALM      30.00R
MINOT AFB      FAIR      30  26  85 NE6       29.98R WCI  24
GARRISON         N/A     32  29  88 NE3       29.98R
WILLISTON      FAIR      30  28  92 N8        29.94F WCI  22
DICKINSON      FAIR      35  34  96 N3        29.94R FOG
HETTINGER      CLOUDY    37  35  92 S3        29.98R
$$

 *****  OTHER OBSERVATIONS NORTHEAST NORTH DAKOTA  *****

CITY           SKY/WX    TMP DP  RH WIND       PRES   REMARKS
WALHALLA       NOT AVBL
LANGDON        FAIR      28  27  93 NE12      30.01R WCI  18
CAVALIER       NOT AVBL
GRAFTON        FAIR      32  32 100 N12       30.01R WCI  23
CANDO          NOT AVBL
FORT TOTTEN      N/A     30  30 100 CALM      29.95S
ROLLA          FAIR      27  27 100 NE13      30.00R WCI  16
RUGBY            N/A     27  27 100 E10       30.00R WCI  17
 ***** THE ABOVE OBSERVATIONS ARE NON NWS ARE NOT QUALITY
        CONTROLLED AND MAY MIS-REPORT RAIN FOR SNOW...
$$

 *****  OTHER OBSERVATIONS SOUTHEAST NORTH DAKOTA *****

CITY           SKY/WX    TMP DP  RH WIND       PRES   REMARKS
COOPERSTOWN    FAIR      34  32  93 N9        29.95S
VALLEY CITY    FAIR      32  32 100 N9        29.94F WCI  24
OAKES          NOT AVBL
GWINNER        FOG       34  34 100 MISG      29.91S VSB 1/4
SHEYENNE NWR     N/A     34  34 100 N2        29.95S
BUFFALO        NOT AVBL
WYNDMERE         N/A     34  34 100 N3          N/A
 ***** THE ABOVE OBSERVATIONS ARE NON NWS ARE NOT QUALITY
       CONTROLLED AND MAY MIS-REPORT RAIN FOR SNOW...
$$

  *****  WEATHER ACROSS NORTHERN MINNESOTA  *****

CITY           SKY/WX    TMP DP  RH WIND       PRES   REMARKS
FLAG ISLAND    MOCLDY    34  30  86 NW7       29.93R
WARROAD        FAIR      32  28  86 NW6       29.95R
ROSEAU         FAIR      34  28  80 N8        29.95R
HALLOCK        FAIR      32  28  86 N8        30.00R WCI  25
THF RVR FALLS  CLOUDY    34  33  96 N10       29.94R
HALSTAD          N/A     33  32  96 NW6         N/A
FOSSTON        CLOUDY    30  30 100 CALM      29.92S FOG
BAUDETTE       CLOUDY    34  32  92 NW9       29.91R
WASKISH        CLOUDY    34  32  93 CALM      29.89F FOG
CROOKSTON      CLOUDY    34  32  93 NW5       29.97R FOG
$$
  *****  WEATHER ACROSS CENTRAL AND WEST MINNESOTA  *****

CITY           SKY/WX    TMP DP  RH WIND       PRES   REMARKS
BEMIDJI        CLOUDY    32  32 100 CALM      29.90R FOG
PARK RAPIDS    CLOUDY    34  31  88 CALM      29.89R FOG
WADENA         CLOUDY    32  32 100 CALM      29.90R FOG
DETROIT LAKES  CLOUDY    34  32  93 CALM      29.92R FOG
MOORHEAD       CLOUDY    34  32  93 NW6       29.93S FOG
FERGUS FALLS   CLOUDY    34  34 100 CALM      29.95R
ELBOW LAKE     CLOUDY    33  33 100 CALM      29.91R FOG
MORRIS MN      CLOUDY    34  34 100 NE5       29.89S FOG
STAPLES        DRIZZLE   32  32 100 CALM      29.91R
WHEATON        CLOUDY    34  34 100 CALM      29.93R FOG
$$
  *****  WEATHER ELSEWHERE ACROSS MINNESOTA  *****

CITY           SKY/WX    TMP DP  RH WIND       PRES   REMARKS
DULUTH         DRIZZLE   33  31  92 CALM      29.90R FOG
INTRNTL FALLS  CLOUDY    34  31  88 W5        29.90R FOG
ELY            CLOUDY    32  32 100 CALM      29.88F FOG
CLOQUET        MIX PCPN  32  30  93 CALM      29.88F
BRAINERD       CLOUDY    33  32  96 NE3       29.90F FOG
HIBBING        CLOUDY    31  31 100 CALM      29.89S FOG
ALEXANDRIA     CLOUDY    34  33  96 N5        29.90R FOG
SAINT CLOUD    CLOUDY    35  35 100 N6        29.86S FOG
MINNEAPOLIS    CLOUDY    39  36  89 SE7       29.85S FOG
$$

  *****  WEATHER ACROSS SOUTH DAKOTA  *****

CITY           SKY/WX    TMP DP  RH WIND       PRES   REMARKS
SIOUX FALLS    CLOUDY    42  40  92 N7        29.78S
BROOKINGS      CLOUDY    35  34  96 N9        29.80F FOG
WATERTOWN      CLOUDY    33  33 100 N12       29.83F FOG     WCI  24
HURON          CLOUDY    38  37  97 N12       29.84S
SISSETON         N/A     34  34 100 NE5       29.90R
ABERDEEN       CLOUDY    35  32  88 N9        29.91R
MITCHELL       CLOUDY    41  40  96 N15       29.84S
PIERRE         CLOUDY    40  36  86 N9        29.91R
MOBRIDGE       FAIR      36  31  82 N7        29.90R
RAPID CITY     MOCLDY    41  37  86 NW12      29.98R
$$

  *****  SOME WEATHER IN NEARBY STATES *****

CITY           SKY/WX    TMP DP  RH WIND       PRES   REMARKS
GLASGOW MT     FAIR      35  27  72 CALM      29.95S
GREAT FALLS MT FAIR      30  17  58 SE3       30.00F
CHEYENNE WY    MIX PCPN  34  31  88 N25G43    29.91R WCI  21
SCOTTSBLUFF NE CLOUDY    42  38  85 NE15      29.93R
OMAHA NE       CLOUDY    65  52  62 N3        29.73R
DES MOINES IA  CLOUDY    57  44  62 SE8       29.75F
DAVENPORT IA   FAIR      51  43  74 S17       29.87F
CHICAGO IL     MOCLDY    47  36  65 S13       29.95F
EAU CLAIRE WI  CLOUDY    38  37  97 CALM      29.87S FOG
LA CROSSE WI   LGT RAIN  41  39  93 N7        29.85R
$$

  *****  SOME NATIONAL WEATHER *****

CITY           SKY/WX    TMP DP  RH WIND       PRES   REMARKS
LA GUARDIA NY  FAIR      39  15  37 SW9       30.49F
RALEIGH NC     FAIR      39  27  62 S5        30.53F
ATLANTA GA     CLOUDY    58  45  62 SE10      30.38F
NEW ORLEANS LA FAIR      68  66  93 SE12      30.16F
OKLAHOMA CITY  CLOUDY    68  42  38 S21G33    29.76F
ALBUQUERQUE NM MOCLDY    43  30  60 SW15      29.88F
SALT LAKE CITY FAIR      35  35 100 S3        30.14R
LOS ANGELES CA FAIR      54  51  90 VRB3      30.23S
BOISE ID       FAIR      45  25  45 SE15      30.04F
SEATTLE WA     LGT RAIN  45  44  97 NE5       29.85F
$$

*** WEATHER ACROSS MANITOBA...SASKATCHEWAN AND ONTARIO ***
                ***ONTARIO***

CITY           SKY/WX    TMP DP  RH WIND       PRES   REMARKS
GERALDTON      CLOUDY    30  28  93 SW7       29.84R WCI  23
THUNDER BAY    CLOUDY    30  30 100 W2        29.89F FOG
SIOUX LOOKOUT  CLOUDY    34  30  86 NW3       29.87R
TORONTO        LGT RAIN  36  23  60 E3        30.13F
BIG TROUT LK   FLURRIES  10   5  79 N12G21    30.04R WCI  -4
PICKLE LAKE    NOT AVBL
DRYDEN         CLOUDY    34  32  93 W5        29.86F
KENORA         CLOUDY    32  28  86 NW8       29.89S WCI  25
$$
                *** MANITOBA***

CITY           SKY/WX    TMP DP  RH WIND       PRES   REMARKS
BRANDON        CLEAR     27  21  80 NE10      30.01S WCI  17
DAUPHIN        CLOUDY    27  21  80 NW5       30.09S WCI  21
ISLAND LAKE    CLEAR      7   1  78 N6        30.15R WCI  -3
PILOT MOUND      N/A     27  25  93 NE10        N/A  WCI  17
THE PAS        FLURRIES  25  19  80 NE3       30.15R
THOMPSON       CLEAR     -6 -13  71 NE7       30.29R WCI -20
WINNIPEG       CLEAR     28  23  80 N15       30.00R WCI  17
LYNN LAKE      CLEAR     -8 -11  84 E5        30.25R WCI -19
CHURCHILL      CLEAR    -17 -22  76 NW12      30.33R WCI -38
GILLAM         CLEAR    -15 -20  76 NW7       30.30R WCI -31
$$
                ***SASKATCHEWAN***

CITY           SKY/WX    TMP DP  RH WIND       PRES   REMARKS
ESTEVAN        PTCLDY    28  25  86 NE7       29.99R WCI  21
KINDERSLEY     MOCLDY    27  25  93 NE7       30.02R WCI  19
LLOYDMINSTER   FOG       23  23 100 S7        30.01S VSB 1/4 WCI  15
PRINCE ALBERT  CLOUDY    27  19  74 SE5       30.09R WCI  21
REGINA         CLEAR     27  23  86 NE8       30.02S WCI  18
YORKTON        CLEAR     19  18  93 NE5       30.06R WC



USA.gov is the U.S. government's official web portal to all federal, state and local government web resources and services.